Bethel Airport Bethel US
ICAO: PABE
IATA:
Category: Medium
Scheduled Services:

Elevation: 126 ft
TransAlt. 18000 ft.

Airport Communications:
ATIS:119.8
ANCHORAGE CNTR:125.2
CTAF/BETHEL WX:118.7
KENAI RDO:122.65
GND:121.7
TWEB:114.1
NG OPS:124.65
TWR:118.7

PABE Zoom In..

If you have problems with the map follow the link
https://www.worldairports.se/pages/airport.php?
ICAO=PABE

Runways:

(A) RW 01L length 6400 ft width 150 ft
---- / hdg 9

(B) RW 01R length 4000 ft width 75 ft
---- / hdg 10

(C) RW 12 length 1858 ft width 75 ft
---- / hdg 114

(D) RW 19L length 4000 ft width 75 ft
---- / hdg 190

(E) RW 19R length 6400 ft width 150 ft
ILS 111.50 / hdg 189

(F) RW 30 length 1858 ft width 75 ft
---- / hdg 294

Location; PABE
Day. 19 / Time. 18.53 Zulu
* Altimeter: 29.35
* Temperature: -17° c. -1.4°f.
* Wind from: 160° Speed 03 kn.
Dewpoint: -18° c.
Visibility: 4 Statute Miles.
Clouds: Overcast 2700 ft.
Conditions: Light Snow.Conditions: Mist.

PABE 191853Z 16003KT 4SM R19R/5500VP6000FT -SN BR OVC027 M17/M18 A2935 RMK AO2 SLP943 P0000 T11671183


Wind From 160°
Speed 03 kn.

 
 
jpsmedia worldairports.se 2020   terms of use